KAZSTSAT

Last updated on Tue Oct 15 2024 00:02:25 GMT+0000 (Coordinated Universal Time)

1 43783U 18099AB 24288.57455410 .00002368 00000+0 20894-3 0 9991 2 43783 97.5137 335.0612 0006109 309.8542 50.2142 14.97300941319843
UTC large
Height (km)
Speed (km/s)
/
Latitude / Longitude
Inclination (degrees)
Orbital Period (minutes)
Azimuth
Elevation
Range (km)
Doppler Factor

Next 0 passes for location: London (51.5072 / 0.1276)

Sorry there are no passes over London.